Вернуться в каталог

STARLINK-11175

АктивенСвязьVLEO
NORAD 60191·PAYLOAD·🇺🇸 United States

Запущен Jul 3, 2024 с Cape Canaveral Space Force Station

Loading…

Ближайшие Пролёты (ближайшие 24 часа)

TLE

СвежийSource: CelesTrak SupGP

Эпоха: Sep 15, 2026, 02:49 UTC

1 60191C 24124J   26258.11784722  .00058981  00000+0  48570-3 0  2580
2 60191  53.1566 307.6399 0001191  83.4982 260.9583 15.69687350    12

Отслеживайте STARLINK-11175 в реальном времени с AllMySat

Download on the App Store